TimePST,TemperatureF,Dew PointF,Humidity,Sea Level PressureIn,VisibilityMPH,Wind Direction,Wind SpeedMPH,Gust SpeedMPH,PrecipitationIn,Events,Conditions,WindDirDegrees,DateUTC
12:56 AM,8.1,3.9,83,30.34,10.0,ENE,5.8,-,N/A,,Clear,70,2013-01-18 08:56:00
1:56 AM,9.0,5.0,84,30.35,9.0,NE,6.9,-,N/A,,Clear,50,2013-01-18 09:56:00
2:56 AM,7.0,3.9,87,30.34,8.0,NE,3.5,-,N/A,,Clear,40,2013-01-18 10:56:00
3:56 AM,8.1,3.9,83,30.33,6.0,Calm,Calm,-,N/A,,Clear,0,2013-01-18 11:56:00
4:56 AM,5.0,1.9,87,30.33,4.0,Calm,Calm,-,N/A,,Clear,0,2013-01-18 12:56:00
5:56 AM,5.0,1.9,87,30.32,4.0,South,3.5,-,N/A,,Clear,180,2013-01-18 13:56:00
6:11 AM,5.0,1.4,85,30.46,2.5,Calm,Calm,-,N/A,,Clear,0,2013-01-18 14:11:00
6:17 AM,3.2,1.4,92,30.46,4.0,SSE,3.5,-,N/A,,Clear,150,2013-01-18 14:17:00
6:56 AM,3.9,-0.0,84,30.33,5.0,SSE,3.5,-,N/A,,Clear,150,2013-01-18 14:56:00
7:56 AM,8.1,1.0,73,30.35,7.0,Calm,Calm,-,N/A,,Clear,0,2013-01-18 15:56:00
8:56 AM,15.1,10.0,80,30.37,7.0,Calm,Calm,-,N/A,,Clear,0,2013-01-18 16:56:00
9:56 AM,19.9,12.9,74,30.37,8.0,ENE,4.6,-,N/A,,Clear,60,2013-01-18 17:56:00
10:56 AM,24.1,15.1,69,30.36,10.0,Calm,Calm,-,N/A,,Clear,0,2013-01-18 18:56:00
11:56 AM,28.9,16.0,58,30.33,10.0,NNE,4.6,-,N/A,,Partly Cloudy,20,2013-01-18 19:56:00
12:56 PM,32.0,17.1,54,30.30,10.0,ENE,4.6,-,N/A,,Partly Cloudy,60,2013-01-18 20:56:00
1:56 PM,34.0,16.0,48,30.29,10.0,Calm,Calm,-,N/A,,Partly Cloudy,0,2013-01-18 21:56:00
2:56 PM,35.1,16.0,46,30.28,10.0,Variable,4.6,-,N/A,,Partly Cloudy,0,2013-01-18 22:56:00
3:56 PM,35.1,16.0,46,30.28,10.0,NNE,4.6,-,N/A,,Clear,30,2013-01-18 23:56:00
4:56 PM,30.0,16.0,56,30.29,10.0,NNE,3.5,-,N/A,,Clear,30,2013-01-19 00:56:00
5:56 PM,24.1,14.0,65,30.30,10.0,ENE,8.1,-,N/A,,Clear,70,2013-01-19 01:56:00
6:56 PM,21.9,14.0,72,30.31,10.0,ESE,3.5,-,N/A,,Clear,120,2013-01-19 02:56:00
7:56 PM,19.0,12.0,74,30.31,10.0,SE,8.1,-,N/A,,Clear,130,2013-01-19 03:56:00
8:56 PM,14.0,9.0,80,30.32,10.0,NE,3.5,-,N/A,,Clear,50,2013-01-19 04:56:00
9:56 PM,15.1,10.0,80,30.32,8.0,Calm,Calm,-,N/A,,Clear,0,2013-01-19 05:56:00
10:56 PM,9.0,7.0,92,30.32,8.0,NNE,3.5,-,N/A,,Clear,20,2013-01-19 06:56:00
11:56 PM,10.0,6.1,84,30.32,10.0,NNE,8.1,-,N/A,,Clear,30,2013-01-19 07:56:00